Parsons, KS

11:51 AM CST on December 12, 2019 (GMT -0600)
Tri-City

Weather History for KPPF - November, 2019

Change the Weather History Date:

Saturday, November 16, 2019

  Actual Average Record
Temperature  
Mean Temperature 44 °F -  
Max Temperature 61 °F 55 °F 81 °F (2016)
Min Temperature 28 °F 34 °F 14 °F (1955)
Degree Days  
Heating Degree Days 20    
Moisture  
Dew Point 29 °F    
Average Humidity 58    
Maximum Humidity 92    
Minimum Humidity 31    
Precipitation  
Precipitation 0.00 in - - ()
Sea Level Pressure  
Sea Level Pressure 30.17 in    
Wind  
Wind Speed 4 mph ()    
Max Wind Speed 13 mph    
Max Gust Speed 22 mph    
Visibility 10.0 miles    
Events      
Averages and records for this station are not official NWS values.
T = Trace of Precipitation, MM = Missing Value Source: Averaged Metar Reports

Daily Weather History Graph

Daily Weather History Graph

Search for Another Location

Airport or City:

Astronomy

Nov. 16, 2019 Rise Set
Actual Time 7:02 AM CST 5:11 PM CST
Civil Twilight 6:34 AM CST 5:38 PM CST
Nautical Twilight 6:02 AM CST 6:10 PM CST
Astronomical Twilight 5:31 AM CST 6:41 PM CST
Moon 8:47 PM CST (11/16) 10:54 AM CST (11/16)
Length of Visible Light 11h 04m
Length of Day
10h 08m
Waning Gibbous, 82% of the Moon is Illuminated
Nov 16
Waning Gibbous
Nov 19
Last Quarter
Nov 26
New
Dec 4
First Quarter
Dec 11
Full

Hourly Weather History & Observations

Time (CST) Temp. Windchill Dew Point Humidity Pressure Visibility Wind Dir Wind Speed Gust Speed Precip Events Conditions
12:52 AM 32.0 °F 28.7 °F 28.0 °F 85% 30.28 in 10.0 mi ESE 3.5 mph - N/A   Clear
1:52 AM 32.0 °F 28.7 °F 28.0 °F 85% 30.27 in 10.0 mi ESE 3.5 mph - N/A   Clear
2:52 AM 32.0 °F - 27.0 °F 82% 30.26 in 10.0 mi Calm Calm - N/A   Clear
3:52 AM 36.0 °F - 28.0 °F 73% 30.26 in 10.0 mi Calm Calm - N/A   Clear
4:52 AM 30.0 °F - 27.0 °F 88% 30.25 in 10.0 mi Calm Calm - N/A   Clear
5:52 AM 28.9 °F - 27.0 °F 92% 30.26 in 10.0 mi Calm Calm - N/A   Clear
6:52 AM 28.0 °F - 26.1 °F 92% 30.27 in 10.0 mi Calm Calm - N/A   Clear
7:52 AM 30.9 °F - 28.9 °F 92% 30.28 in 10.0 mi Calm Calm - N/A   Clear
8:52 AM 42.1 °F 38.4 °F 30.9 °F 65% 30.27 in 10.0 mi South 5.8 mph - N/A   Clear
10:52 AM 53.1 °F - 30.9 °F 43% 30.24 in 10.0 mi South 10.4 mph - N/A   Clear
11:52 AM 55.9 °F - 30.0 °F 37% 30.20 in 10.0 mi South 12.7 mph 21.9 mph N/A   Clear
12:52 PM 57.9 °F - 30.0 °F 35% 30.14 in 10.0 mi South 11.5 mph 19.6 mph N/A   Clear
1:52 PM 60.1 °F - 28.9 °F 31% 30.11 in 10.0 mi SSE 11.5 mph 19.6 mph N/A   Clear
2:52 PM 61.0 °F - 30.0 °F 31% 30.08 in 10.0 mi South 10.4 mph 21.9 mph N/A   Clear
3:52 PM 60.1 °F - 30.0 °F 32% 30.06 in 10.0 mi South 8.1 mph 19.6 mph N/A   Clear
4:52 PM 55.9 °F - 28.9 °F 36% 30.06 in 10.0 mi South 6.9 mph - N/A   Clear
5:52 PM 52.0 °F - 28.9 °F 41% 30.06 in 10.0 mi SSE 4.6 mph - N/A   Clear
6:52 PM 51.1 °F - 30.0 °F 44% 30.06 in 9.0 mi SSE 5.8 mph - N/A   Clear
7:52 PM 51.1 °F - 30.0 °F 44% 30.06 in 10.0 mi South 6.9 mph - N/A   Clear
8:52 PM 46.9 °F - 30.0 °F 52% 30.08 in 10.0 mi South 3.5 mph - N/A   Clear
9:52 PM 48.0 °F - 30.9 °F 52% 30.08 in 10.0 mi South 5.8 mph - N/A   Clear
10:52 PM 48.0 °F - 30.0 °F 50% 30.08 in 10.0 mi South 4.6 mph - N/A   Clear